Time,TemperatureF,DewpointF,PressureIn,WindDirection,WindDirectionDegrees,WindSpeedMPH,WindSpeedGustMPH,Humidity,HourlyPrecipIn,Conditions,Clouds,dailyrainin,SoftwareType,DateUTC
2013-08-10 00:05:00,70.6,69.7,30.00,ESE,115,0.0,0.0,97,0.00,,,0.00,Wunderground v.1.15,2013-08-10 04:05:00,
2013-08-10 00:10:00,70.6,69.7,30.00,ESE,115,0.0,0.0,97,0.00,,,0.00,Wunderground v.1.15,2013-08-10 04:10:00,
2013-08-10 00:15:00,70.6,69.7,30.01,ESE,115,0.0,0.0,97,0.00,,,0.00,Wunderground v.1.15,2013-08-10 04:15:00,
2013-08-10 00:20:00,70.6,69.7,30.01,ESE,115,0.0,0.0,97,0.00,,,0.00,Wunderground v.1.15,2013-08-10 04:20:00,
2013-08-10 00:25:00,70.6,69.7,30.01,ESE,115,0.0,0.0,97,0.00,,,0.00,Wunderground v.1.15,2013-08-10 04:25:00,
2013-08-10 00:30:00,70.5,69.6,30.00,ESE,115,0.0,0.0,97,0.00,,,0.00,Wunderground v.1.15,2013-08-10 04:30:00,
2013-08-10 00:35:00,70.4,69.5,30.01,ESE,115,0.0,0.0,97,0.00,,,0.00,Wunderground v.1.15,2013-08-10 04:35:00,
2013-08-10 00:40:00,70.4,69.5,30.01,ESE,115,0.0,0.0,97,0.00,,,0.00,Wunderground v.1.15,2013-08-10 04:40:00,
2013-08-10 00:45:00,70.4,69.5,30.00,ESE,115,0.0,0.0,97,0.00,,,0.00,Wunderground v.1.15,2013-08-10 04:45:00,
2013-08-10 00:50:00,70.3,69.4,30.00,ESE,115,0.0,0.0,97,0.00,,,0.00,Wunderground v.1.15,2013-08-10 04:50:00,
2013-08-10 00:55:00,70.3,69.4,30.00,ESE,115,0.0,0.0,97,0.00,,,0.00,Wunderground v.1.15,2013-08-10 04:55:00,
2013-08-10 01:00:00,70.3,69.4,30.00,ESE,115,0.0,0.0,97,0.00,,,0.00,Wunderground v.1.15,2013-08-10 05:00:00,
2013-08-10 01:05:00,70.2,69.3,30.00,ESE,115,0.0,0.0,97,0.00,,,0.00,Wunderground v.1.15,2013-08-10 05:05:00,
2013-08-10 01:10:00,70.1,69.2,30.00,ESE,115,0.0,0.0,97,0.00,,,0.00,Wunderground v.1.15,2013-08-10 05:10:00,
2013-08-10 01:15:00,70.1,69.2,30.00,ESE,115,0.0,0.0,97,0.00,,,0.00,Wunderground v.1.15,2013-08-10 05:15:00,
2013-08-10 01:20:00,70.1,69.2,30.00,ESE,115,0.0,0.0,97,0.00,,,0.00,Wunderground v.1.15,2013-08-10 05:20:00,
2013-08-10 01:25:00,70.0,69.1,30.01,ESE,115,0.0,0.0,97,0.00,,,0.00,Wunderground v.1.15,2013-08-10 05:25:00,
2013-08-10 01:30:00,69.9,69.0,30.00,ESE,115,0.0,0.0,97,0.00,,,0.00,Wunderground v.1.15,2013-08-10 05:30:00,
2013-08-10 01:35:00,69.9,69.3,30.01,ESE,115,0.0,0.0,98,0.00,,,0.00,Wunderground v.1.15,2013-08-10 05:35:00,
2013-08-10 01:40:00,70.0,69.4,30.01,ESE,115,0.0,0.0,98,0.00,,,0.00,Wunderground v.1.15,2013-08-10 05:40:00,
2013-08-10 01:45:00,70.0,69.4,30.01,ESE,115,0.0,0.0,98,0.00,,,0.00,Wunderground v.1.15,2013-08-10 05:45:00,
2013-08-10 01:50:00,70.0,69.4,30.01,ESE,115,0.0,0.0,98,0.00,,,0.00,Wunderground v.1.15,2013-08-10 05:50:00,
2013-08-10 01:55:00,69.9,69.3,30.01,ESE,115,0.0,0.0,98,0.00,,,0.00,Wunderground v.1.15,2013-08-10 05:55:00,
2013-08-10 02:00:00,69.9,69.3,30.01,ESE,115,0.0,0.0,98,0.00,,,0.00,Wunderground v.1.15,2013-08-10 06:00:00,
2013-08-10 02:05:00,69.8,69.2,30.01,ESE,115,0.0,0.0,98,0.00,,,0.00,Wunderground v.1.15,2013-08-10 06:05:00,
2013-08-10 02:15:00,69.8,69.2,30.00,ESE,115,0.0,0.0,98,0.00,,,0.00,Wunderground v.1.15,2013-08-10 06:15:00,
2013-08-10 02:20:00,69.7,69.1,30.00,ESE,115,0.0,0.0,98,0.00,,,0.00,Wunderground v.1.15,2013-08-10 06:20:00,
2013-08-10 02:25:00,69.8,69.2,30.00,ESE,115,0.0,0.0,98,0.00,,,0.00,Wunderground v.1.15,2013-08-10 06:25:00,
2013-08-10 02:30:00,69.7,69.1,30.00,ESE,115,0.0,0.0,98,0.00,,,0.00,Wunderground v.1.15,2013-08-10 06:30:00,
2013-08-10 02:35:00,69.7,69.1,30.00,ESE,115,0.0,0.0,98,0.00,,,0.00,Wunderground v.1.15,2013-08-10 06:35:00,
2013-08-10 02:40:00,69.7,69.1,30.00,ESE,115,0.0,0.0,98,0.00,,,0.00,Wunderground v.1.15,2013-08-10 06:40:00,
2013-08-10 02:45:00,69.6,69.0,30.00,ESE,115,0.0,0.0,98,0.00,,,0.00,Wunderground v.1.15,2013-08-10 06:45:00,
2013-08-10 02:50:00,69.6,69.0,29.99,ESE,115,0.0,0.0,98,0.00,,,0.00,Wunderground v.1.15,2013-08-10 06:50:00,
2013-08-10 02:55:00,69.6,69.0,29.99,ESE,115,0.0,0.0,98,0.00,,,0.00,Wunderground v.1.15,2013-08-10 06:55:00,
2013-08-10 03:05:00,69.6,69.0,30.00,ESE,115,0.0,0.0,98,0.00,,,0.00,Wunderground v.1.15,2013-08-10 07:05:00,
2013-08-10 03:10:00,69.6,69.0,29.99,ESE,115,0.0,0.0,98,0.00,,,0.00,Wunderground v.1.15,2013-08-10 07:10:00,
2013-08-10 03:15:00,69.5,68.9,29.99,ESE,115,0.0,0.0,98,0.00,,,0.00,Wunderground v.1.15,2013-08-10 07:15:00,
2013-08-10 03:20:00,69.4,68.8,29.99,ESE,115,0.0,0.0,98,0.00,,,0.00,Wunderground v.1.15,2013-08-10 07:20:00,
2013-08-10 03:25:00,69.4,68.8,29.99,ESE,115,0.0,0.0,98,0.00,,,0.00,Wunderground v.1.15,2013-08-10 07:25:00,
2013-08-10 03:30:00,69.3,68.7,29.99,ESE,115,0.0,0.0,98,0.00,,,0.00,Wunderground v.1.15,2013-08-10 07:30:00,
2013-08-10 03:35:00,69.3,68.7,29.99,ESE,115,0.0,0.0,98,0.00,,,0.00,Wunderground v.1.15,2013-08-10 07:35:00,
2013-08-10 03:40:00,69.4,68.8,30.00,ESE,115,0.0,0.0,98,0.00,,,0.00,Wunderground v.1.15,2013-08-10 07:40:00,
2013-08-10 03:45:00,69.6,69.0,30.00,ESE,115,0.0,0.0,98,0.00,,,0.00,Wunderground v.1.15,2013-08-10 07:45:00,
2013-08-10 03:50:00,69.7,69.1,30.00,ESE,115,0.0,0.0,98,0.00,,,0.00,Wunderground v.1.15,2013-08-10 07:50:00,
2013-08-10 03:55:00,69.8,69.2,30.00,ESE,115,0.0,0.0,98,0.00,,,0.00,Wunderground v.1.15,2013-08-10 07:55:00,
2013-08-10 04:00:00,69.6,69.0,30.00,ESE,115,0.0,0.0,98,0.00,,,0.00,Wunderground v.1.15,2013-08-10 08:00:00,
2013-08-10 04:05:00,69.5,68.9,30.00,ESE,115,0.0,0.0,98,0.00,,,0.00,Wunderground v.1.15,2013-08-10 08:05:00,
2013-08-10 04:15:00,69.4,68.8,30.00,ESE,115,0.0,0.0,98,0.00,,,0.00,Wunderground v.1.15,2013-08-10 08:15:00,
2013-08-10 04:20:00,69.3,68.7,30.00,ESE,115,0.0,0.0,98,0.00,,,0.00,Wunderground v.1.15,2013-08-10 08:20:00,
2013-08-10 04:25:00,69.3,68.7,29.99,ESE,115,0.0,0.0,98,0.00,,,0.00,Wunderground v.1.15,2013-08-10 08:25:00,
2013-08-10 04:30:00,69.5,68.9,29.99,ESE,115,0.0,0.0,98,0.00,,,0.00,Wunderground v.1.15,2013-08-10 08:30:00,
2013-08-10 04:35:00,69.8,69.8,30.00,ESE,115,0.0,0.0,100,0.00,,,0.00,Wunderground v.1.15,2013-08-10 08:35:00,
2013-08-10 04:40:00,69.9,69.6,29.99,ESE,115,0.0,0.0,99,0.00,,,0.00,Wunderground v.1.15,2013-08-10 08:40:00,
2013-08-10 04:45:00,69.8,69.2,29.99,ESE,115,0.0,0.0,98,0.00,,,0.00,Wunderground v.1.15,2013-08-10 08:45:00,
2013-08-10 04:50:00,69.6,69.0,30.00,ESE,115,0.0,0.0,98,0.00,,,0.00,Wunderground v.1.15,2013-08-10 08:50:00,
2013-08-10 04:55:00,69.4,68.8,30.00,ESE,115,0.0,0.0,98,0.00,,,0.00,Wunderground v.1.15,2013-08-10 08:55:00,
2013-08-10 05:00:00,69.4,68.8,29.99,ESE,115,0.0,0.0,98,0.00,,,0.00,Wunderground v.1.15,2013-08-10 09:00:00,
2013-08-10 05:05:00,69.5,68.9,29.99,ESE,115,0.0,0.0,98,0.00,,,0.00,Wunderground v.1.15,2013-08-10 09:05:00,
2013-08-10 05:10:00,69.4,68.8,30.00,ESE,115,0.0,0.0,98,0.00,,,0.00,Wunderground v.1.15,2013-08-10 09:10:00,
2013-08-10 05:15:00,69.3,68.7,29.99,ESE,115,0.0,0.0,98,0.00,,,0.00,Wunderground v.1.15,2013-08-10 09:15:00,
2013-08-10 05:20:00,69.2,68.6,29.99,ESE,115,0.0,0.0,98,0.00,,,0.00,Wunderground v.1.15,2013-08-10 09:20:00,
2013-08-10 05:25:00,69.0,68.4,30.00,ESE,115,0.0,0.0,98,0.00,,,0.00,Wunderground v.1.15,2013-08-10 09:25:00,
2013-08-10 05:30:00,69.0,68.4,29.99,ESE,115,0.0,0.0,98,0.00,,,0.00,Wunderground v.1.15,2013-08-10 09:30:00,
2013-08-10 05:35:00,69.0,68.4,30.00,ESE,115,0.0,0.0,98,0.00,,,0.00,Wunderground v.1.15,2013-08-10 09:35:00,
2013-08-10 05:40:00,69.2,68.6,29.99,ESE,115,0.0,0.0,98,0.00,,,0.00,Wunderground v.1.15,2013-08-10 09:40:00,
2013-08-10 05:45:00,69.2,68.9,30.00,ESE,115,0.0,0.0,99,0.00,,,0.00,Wunderground v.1.15,2013-08-10 09:45:00,
2013-08-10 05:50:00,69.0,68.4,30.00,ESE,115,0.0,0.0,98,0.00,,,0.00,Wunderground v.1.15,2013-08-10 09:50:00,
2013-08-10 05:55:00,68.9,68.3,30.00,ESE,115,0.0,0.0,98,0.00,,,0.00,Wunderground v.1.15,2013-08-10 09:55:00,
2013-08-10 06:00:00,68.7,68.1,30.00,ESE,115,0.0,0.0,98,0.00,,,0.00,Wunderground v.1.15,2013-08-10 10:00:00,
2013-08-10 06:05:00,68.6,68.0,30.00,ESE,115,0.0,0.0,98,0.00,,,0.00,Wunderground v.1.15,2013-08-10 10:05:00,
2013-08-10 06:15:00,68.7,68.1,30.00,ESE,115,0.0,0.0,98,0.00,,,0.00,Wunderground v.1.15,2013-08-10 10:15:00,
2013-08-10 06:20:00,68.8,68.2,30.01,ESE,115,0.0,0.0,98,0.00,,,0.00,Wunderground v.1.15,2013-08-10 10:20:00,
2013-08-10 06:25:00,68.6,68.0,30.00,ESE,115,0.0,0.0,98,0.00,,,0.00,Wunderground v.1.15,2013-08-10 10:25:00,
2013-08-10 06:30:00,68.5,67.9,30.01,ESE,115,0.0,0.0,98,0.00,,,0.00,Wunderground v.1.15,2013-08-10 10:30:00,
2013-08-10 06:35:00,68.4,67.8,30.01,ESE,115,0.0,0.0,98,0.00,,,0.00,Wunderground v.1.15,2013-08-10 10:35:00,
2013-08-10 06:40:00,68.3,67.7,30.01,ESE,115,0.0,0.0,98,0.00,,,0.00,Wunderground v.1.15,2013-08-10 10:40:00,
2013-08-10 06:45:00,68.2,67.6,30.01,ESE,115,0.0,0.0,98,0.00,,,0.00,Wunderground v.1.15,2013-08-10 10:45:00,
2013-08-10 06:50:00,68.3,67.7,30.01,ESE,115,0.0,0.0,98,0.00,,,0.00,Wunderground v.1.15,2013-08-10 10:50:00,
2013-08-10 06:55:00,68.3,67.7,30.01,ESE,115,0.0,0.0,98,0.00,,,0.00,Wunderground v.1.15,2013-08-10 10:55:00,
2013-08-10 07:00:00,68.4,67.8,30.01,ESE,115,0.0,0.0,98,0.00,,,0.00,Wunderground v.1.15,2013-08-10 11:00:00,
2013-08-10 07:05:00,68.5,67.9,30.01,ESE,115,0.0,0.0,98,0.00,,,0.00,Wunderground v.1.15,2013-08-10 11:05:00,
2013-08-10 07:15:00,68.6,68.3,30.02,ESE,115,0.0,0.0,99,0.00,,,0.00,Wunderground v.1.15,2013-08-10 11:15:00,
2013-08-10 07:20:00,68.6,68.3,30.02,ESE,115,0.0,0.0,99,0.00,,,0.00,Wunderground v.1.15,2013-08-10 11:20:00,
2013-08-10 07:25:00,68.6,68.3,30.02,ESE,115,0.0,0.0,99,0.00,,,0.00,Wunderground v.1.15,2013-08-10 11:25:00,
2013-08-10 07:30:00,68.6,68.3,30.02,ESE,115,0.0,0.0,99,0.00,,,0.00,Wunderground v.1.15,2013-08-10 11:30:00,
2013-08-10 07:35:00,68.6,68.3,30.02,ESE,115,0.0,0.0,99,0.00,,,0.00,Wunderground v.1.15,2013-08-10 11:35:00,
2013-08-10 07:40:00,68.4,67.8,30.02,ESE,115,0.0,0.0,98,0.00,,,0.00,Wunderground v.1.15,2013-08-10 11:40:00,
2013-08-10 07:45:00,68.1,67.5,30.02,ESE,115,0.0,0.0,98,0.00,,,0.00,Wunderground v.1.15,2013-08-10 11:45:00,
2013-08-10 07:50:00,68.0,67.4,30.02,ESE,115,0.0,0.0,98,0.00,,,0.00,Wunderground v.1.15,2013-08-10 11:50:00,
2013-08-10 07:55:00,68.0,67.4,30.02,ESE,115,0.0,0.0,98,0.00,,,0.00,Wunderground v.1.15,2013-08-10 11:55:00,
2013-08-10 08:00:00,68.3,68.0,30.02,ESE,115,0.0,0.0,99,0.00,,,0.00,Wunderground v.1.15,2013-08-10 12:00:00,
2013-08-10 08:05:00,68.4,68.1,30.03,ESE,115,0.0,0.0,99,0.00,,,0.00,Wunderground v.1.15,2013-08-10 12:05:00,
2013-08-10 08:10:00,68.6,68.3,30.03,ESE,115,0.0,0.0,99,0.00,,,0.00,Wunderground v.1.15,2013-08-10 12:10:00,
2013-08-10 08:15:00,69.0,68.7,30.03,ESE,115,0.0,0.0,99,0.00,,,0.00,Wunderground v.1.15,2013-08-10 12:15:00,
2013-08-10 08:20:00,69.3,69.0,30.02,ESE,115,0.0,0.0,99,0.00,,,0.00,Wunderground v.1.15,2013-08-10 12:20:00,
2013-08-10 08:25:00,69.6,69.3,30.03,ESE,115,0.0,0.0,99,0.00,,,0.00,Wunderground v.1.15,2013-08-10 12:25:00,
2013-08-10 08:30:00,69.9,69.6,30.03,ESE,115,0.0,0.0,99,0.00,,,0.00,Wunderground v.1.15,2013-08-10 12:30:00,
2013-08-10 08:35:00,70.3,70.0,30.03,ESE,115,0.0,0.0,99,0.00,,,0.00,Wunderground v.1.15,2013-08-10 12:35:00,
2013-08-10 08:40:00,71.2,70.9,30.02,ESE,115,0.0,0.0,99,0.00,,,0.00,Wunderground v.1.15,2013-08-10 12:40:00,
2013-08-10 08:45:00,71.6,71.3,30.03,ESE,115,0.0,0.0,99,0.00,,,0.00,Wunderground v.1.15,2013-08-10 12:45:00,
2013-08-10 08:50:00,72.2,71.9,30.03,ESE,115,0.0,0.0,99,0.00,,,0.00,Wunderground v.1.15,2013-08-10 12:50:00,
2013-08-10 08:55:00,73.0,72.7,30.03,ESE,115,0.0,0.0,99,0.00,,,0.00,Wunderground v.1.15,2013-08-10 12:55:00,
2013-08-10 09:00:00,73.5,73.2,30.03,ESE,115,0.0,0.0,99,0.00,,,0.00,Wunderground v.1.15,2013-08-10 13:00:00,
2013-08-10 09:05:00,74.0,73.7,30.03,ESE,115,0.0,0.0,99,0.00,,,0.00,Wunderground v.1.15,2013-08-10 13:05:00,
2013-08-10 09:10:00,74.1,73.8,30.03,ESE,115,0.0,0.0,99,0.00,,,0.00,Wunderground v.1.15,2013-08-10 13:10:00,
2013-08-10 09:15:00,74.5,74.2,30.04,ESE,115,0.0,0.0,99,0.00,,,0.00,Wunderground v.1.15,2013-08-10 13:15:00,
2013-08-10 09:20:00,74.7,73.2,30.04,ESE,115,0.0,0.0,95,0.00,,,0.00,Wunderground v.1.15,2013-08-10 13:20:00,
2013-08-10 09:25:00,74.9,73.7,30.04,ESE,115,0.0,0.0,96,0.00,,,0.00,Wunderground v.1.15,2013-08-10 13:25:00,
2013-08-10 09:30:00,75.2,73.7,30.03,ESE,115,0.0,0.0,95,0.00,,,0.00,Wunderground v.1.15,2013-08-10 13:30:00,
2013-08-10 09:35:00,75.8,74.6,30.03,ESE,115,0.0,0.0,96,0.00,,,0.00,Wunderground v.1.15,2013-08-10 13:35:00,
2013-08-10 09:40:00,76.5,75.3,30.03,ESE,115,0.0,0.0,96,0.00,,,0.00,Wunderground v.1.15,2013-08-10 13:40:00,
2013-08-10 09:45:00,76.9,75.4,30.03,ESE,115,0.0,0.0,95,0.00,,,0.00,Wunderground v.1.15,2013-08-10 13:45:00,
2013-08-10 09:50:00,77.4,74.9,30.03,ESE,115,0.0,0.0,92,0.00,,,0.00,Wunderground v.1.15,2013-08-10 13:50:00,
2013-08-10 09:55:00,77.9,75.4,30.03,ESE,115,0.0,0.0,92,0.00,,,0.00,Wunderground v.1.15,2013-08-10 13:55:00,
2013-08-10 10:00:00,78.7,76.5,30.03,ESE,115,0.0,0.0,93,0.00,,,0.00,Wunderground v.1.15,2013-08-10 14:00:00,
2013-08-10 10:05:00,79.5,74.9,30.03,ESE,115,0.0,0.0,86,0.00,,,0.00,Wunderground v.1.15,2013-08-10 14:05:00,
2013-08-10 10:10:00,80.3,75.7,30.03,ESE,115,0.0,0.0,86,0.00,,,0.00,Wunderground v.1.15,2013-08-10 14:10:00,
2013-08-10 10:15:00,81.0,74.6,30.03,ESE,115,0.0,0.0,81,0.00,,,0.00,Wunderground v.1.15,2013-08-10 14:15:00,
2013-08-10 10:20:00,81.2,75.5,30.03,ESE,115,0.0,0.0,83,0.00,,,0.00,Wunderground v.1.15,2013-08-10 14:20:00,
2013-08-10 10:25:00,81.7,76.4,30.03,ESE,115,0.0,0.0,84,0.00,,,0.00,Wunderground v.1.15,2013-08-10 14:25:00,
2013-08-10 10:30:00,82.0,74.8,30.03,ESE,115,0.0,0.0,79,0.00,,,0.00,Wunderground v.1.15,2013-08-10 14:30:00,
2013-08-10 10:35:00,82.2,76.2,30.03,ESE,115,0.0,0.0,82,0.00,,,0.00,Wunderground v.1.15,2013-08-10 14:35:00,
2013-08-10 10:40:00,82.9,77.2,30.02,ESE,115,0.0,0.0,83,0.00,,,0.00,Wunderground v.1.15,2013-08-10 14:40:00,
2013-08-10 10:45:00,83.1,75.5,30.02,ESE,115,0.0,0.0,78,0.00,,,0.00,Wunderground v.1.15,2013-08-10 14:45:00,
2013-08-10 10:50:00,83.0,76.2,30.02,ESE,115,0.0,0.0,80,0.00,,,0.00,Wunderground v.1.15,2013-08-10 14:50:00,
2013-08-10 10:55:00,82.8,76.4,30.03,ESE,115,0.0,0.0,81,0.00,,,0.00,Wunderground v.1.15,2013-08-10 14:55:00,
2013-08-10 11:00:00,82.2,76.2,30.04,ESE,115,0.0,0.0,82,0.35,,,0.02,Wunderground v.1.15,2013-08-10 15:00:00,
2013-08-10 11:05:00,81.5,75.8,30.03,ESE,115,0.0,0.0,83,0.09,,,0.02,Wunderground v.1.15,2013-08-10 15:05:00,
2013-08-10 11:10:00,80.8,74.8,30.04,ESE,115,0.0,0.0,82,0.05,,,0.02,Wunderground v.1.15,2013-08-10 15:10:00,
2013-08-10 11:15:00,79.2,73.9,30.05,ESE,115,0.0,0.0,84,0.05,,,0.03,Wunderground v.1.15,2013-08-10 15:15:00,
2013-08-10 11:20:00,78.1,73.9,30.05,ESE,115,0.0,0.0,87,0.94,,,0.06,Wunderground v.1.15,2013-08-10 15:20:00,
2013-08-10 11:25:00,77.2,73.7,30.05,ESE,115,0.0,0.0,89,0.23,,,0.09,Wunderground v.1.15,2013-08-10 15:25:00,
2013-08-10 11:30:00,76.6,73.4,30.05,ESE,115,0.0,0.0,90,0.12,,,0.10,Wunderground v.1.15,2013-08-10 15:30:00,
2013-08-10 11:35:00,76.1,73.3,30.05,ESE,115,0.0,0.0,91,0.06,,,0.10,Wunderground v.1.15,2013-08-10 15:35:00,
2013-08-10 11:40:00,76.0,73.8,30.05,ESE,115,0.0,0.0,93,0.04,,,0.10,Wunderground v.1.15,2013-08-10 15:40:00,
2013-08-10 11:45:00,75.8,73.9,30.05,ESE,115,0.0,0.0,94,0.00,,,0.10,Wunderground v.1.15,2013-08-10 15:45:00,
2013-08-10 11:50:00,75.5,73.3,30.06,ESE,115,0.0,0.0,93,0.00,,,0.10,Wunderground v.1.15,2013-08-10 15:50:00,
2013-08-10 11:55:00,74.9,71.8,30.06,ESE,115,0.0,0.0,90,0.00,,,0.10,Wunderground v.1.15,2013-08-10 15:55:00,
2013-08-10 12:00:00,74.8,72.6,30.05,ESE,115,0.0,0.0,93,0.00,,,0.11,Wunderground v.1.15,2013-08-10 16:00:00,
2013-08-10 12:05:00,75.5,74.6,30.05,ESE,115,0.0,0.0,97,0.00,,,0.11,Wunderground v.1.15,2013-08-10 16:05:00,
2013-08-10 12:10:00,76.5,75.9,30.04,ESE,115,0.0,0.0,98,0.00,,,0.11,Wunderground v.1.15,2013-08-10 16:10:00,
2013-08-10 12:15:00,76.1,74.2,30.04,ESE,115,0.0,0.0,94,0.00,,,0.11,Wunderground v.1.15,2013-08-10 16:15:00,
2013-08-10 12:20:00,75.7,72.9,30.05,ESE,115,0.0,0.0,91,0.00,,,0.11,Wunderground v.1.15,2013-08-10 16:20:00,
2013-08-10 12:25:00,75.6,73.8,30.04,ESE,115,0.0,0.0,94,0.00,,,0.11,Wunderground v.1.15,2013-08-10 16:25:00,
2013-08-10 12:30:00,75.3,73.1,30.05,ESE,115,0.0,0.0,93,0.00,,,0.11,Wunderground v.1.15,2013-08-10 16:30:00,
2013-08-10 12:35:00,75.1,73.6,30.05,ESE,115,0.0,0.0,95,0.00,,,0.11,Wunderground v.1.15,2013-08-10 16:35:00,
2013-08-10 12:40:00,75.0,73.2,30.05,ESE,115,0.0,0.0,94,0.00,,,0.11,Wunderground v.1.15,2013-08-10 16:40:00,
2013-08-10 12:45:00,75.3,73.5,30.05,ESE,115,0.0,0.0,94,0.00,,,0.11,Wunderground v.1.15,2013-08-10 16:45:00,
2013-08-10 12:50:00,75.6,72.5,30.04,ESE,115,0.0,0.0,90,0.00,,,0.11,Wunderground v.1.15,2013-08-10 16:50:00,
2013-08-10 12:55:00,76.6,74.7,30.04,ESE,115,0.0,0.0,94,0.00,,,0.11,Wunderground v.1.15,2013-08-10 16:55:00,
2013-08-10 13:00:00,77.7,75.2,30.04,ESE,115,0.0,0.0,92,0.00,,,0.11,Wunderground v.1.15,2013-08-10 17:00:00,
2013-08-10 13:05:00,78.2,75.0,30.03,ESE,115,0.0,0.0,90,0.00,,,0.11,Wunderground v.1.15,2013-08-10 17:05:00,
2013-08-10 13:10:00,78.7,74.2,30.03,ESE,115,0.0,0.0,86,0.00,,,0.11,Wunderground v.1.15,2013-08-10 17:10:00,
2013-08-10 13:15:00,79.5,76.6,30.03,ESE,115,0.0,0.0,91,0.00,,,0.11,Wunderground v.1.15,2013-08-10 17:15:00,
2013-08-10 13:20:00,79.7,74.1,30.03,ESE,115,0.0,0.0,83,0.00,,,0.11,Wunderground v.1.15,2013-08-10 17:20:00,
2013-08-10 13:25:00,79.5,75.3,30.03,ESE,115,0.0,0.0,87,0.00,,,0.12,Wunderground v.1.15,2013-08-10 17:25:00,
2013-08-10 13:30:00,78.6,74.7,30.02,ESE,115,0.0,0.0,88,0.00,,,0.12,Wunderground v.1.15,2013-08-10 17:30:00,
2013-08-10 13:40:00,77.3,75.4,30.03,ESE,115,1.0,1.0,94,0.00,,,0.12,Wunderground v.1.15,2013-08-10 17:40:00,
2013-08-10 13:45:00,76.7,73.2,30.02,ESE,115,1.0,1.0,89,0.00,,,0.12,Wunderground v.1.15,2013-08-10 17:45:00,
2013-08-10 13:50:00,76.6,73.1,30.02,ESE,115,0.0,0.0,89,0.00,,,0.12,Wunderground v.1.15,2013-08-10 17:50:00,
2013-08-10 13:55:00,76.7,72.9,30.03,ESE,115,0.0,0.0,88,0.00,,,0.12,Wunderground v.1.15,2013-08-10 17:55:00,
2013-08-10 14:00:00,77.0,73.2,30.02,ESE,115,0.0,0.0,88,0.00,,,0.12,Wunderground v.1.15,2013-08-10 18:00:00,
2013-08-10 14:05:00,77.5,74.3,30.02,ESE,115,0.0,0.0,90,0.00,,,0.12,Wunderground v.1.15,2013-08-10 18:05:00,
2013-08-10 14:10:00,78.1,73.6,30.02,ESE,115,0.0,0.0,86,0.00,,,0.12,Wunderground v.1.15,2013-08-10 18:10:00,
2013-08-10 14:15:00,79.2,75.7,30.02,ESE,115,0.0,0.0,89,0.00,,,0.12,Wunderground v.1.15,2013-08-10 18:15:00,
2013-08-10 14:20:00,80.2,75.6,30.01,ESE,115,0.0,0.0,86,0.00,,,0.12,Wunderground v.1.15,2013-08-10 18:20:00,
2013-08-10 14:25:00,81.2,75.9,30.01,ESE,115,0.0,0.0,84,0.00,,,0.12,Wunderground v.1.15,2013-08-10 18:25:00,
2013-08-10 14:35:00,81.6,74.1,30.01,ESE,115,1.0,2.0,78,0.00,,,0.12,Wunderground v.1.15,2013-08-10 18:35:00,
2013-08-10 14:40:00,81.8,75.4,30.01,ESE,115,1.0,1.0,81,0.00,,,0.12,Wunderground v.1.15,2013-08-10 18:40:00,
2013-08-10 14:45:00,82.3,75.5,30.01,ESE,115,0.0,1.0,80,0.00,,,0.12,Wunderground v.1.15,2013-08-10 18:45:00,
2013-08-10 14:50:00,83.0,76.6,30.00,ESE,115,0.0,0.0,81,0.00,,,0.12,Wunderground v.1.15,2013-08-10 18:50:00,
2013-08-10 14:55:00,84.1,79.1,30.00,ESE,115,0.0,0.0,85,0.00,,,0.12,Wunderground v.1.15,2013-08-10 18:55:00,
2013-08-10 15:00:00,84.6,76.2,30.00,ESE,115,0.0,1.0,76,0.00,,,0.12,Wunderground v.1.15,2013-08-10 19:00:00,
2013-08-10 15:05:00,85.0,77.4,30.00,ESE,115,0.0,1.0,78,0.00,,,0.12,Wunderground v.1.15,2013-08-10 19:05:00,
2013-08-10 15:10:00,85.4,77.8,30.00,ESE,115,0.0,0.0,78,0.00,,,0.12,Wunderground v.1.15,2013-08-10 19:10:00,
2013-08-10 15:20:00,85.0,74.5,29.99,ESE,115,0.0,0.0,71,0.00,,,0.12,Wunderground v.1.15,2013-08-10 19:20:00,
2013-08-10 15:25:00,84.7,77.1,29.99,ESE,115,0.0,0.0,78,0.00,,,0.12,Wunderground v.1.15,2013-08-10 19:25:00,
2013-08-10 15:30:00,84.5,77.3,29.99,ESE,115,0.0,0.0,79,0.00,,,0.12,Wunderground v.1.15,2013-08-10 19:30:00,
2013-08-10 15:35:00,83.8,76.6,29.99,ESE,115,0.0,0.0,79,0.00,,,0.12,Wunderground v.1.15,2013-08-10 19:35:00,
2013-08-10 15:40:00,83.8,75.8,29.98,ESE,116,0.0,0.0,77,0.00,,,0.12,Wunderground v.1.15,2013-08-10 19:40:00,
2013-08-10 15:45:00,83.9,75.9,29.98,ESE,118,0.0,1.0,77,0.00,,,0.12,Wunderground v.1.15,2013-08-10 19:45:00,
2013-08-10 15:55:00,84.0,76.4,29.98,SSE,161,0.0,0.0,78,0.00,,,0.12,Wunderground v.1.15,2013-08-10 19:55:00,
2013-08-10 16:00:00,84.1,75.7,29.97,SSE,163,0.0,0.0,76,0.00,,,0.12,Wunderground v.1.15,2013-08-10 20:00:00,
2013-08-10 16:05:00,84.0,76.4,29.97,SSE,163,0.0,1.0,78,0.00,,,0.12,Wunderground v.1.15,2013-08-10 20:05:00,
2013-08-10 16:10:00,83.9,76.7,29.97,SSE,163,0.0,0.0,79,0.00,,,0.12,Wunderground v.1.15,2013-08-10 20:10:00,
2013-08-10 16:15:00,83.6,75.6,29.97,SSE,163,0.0,0.0,77,0.00,,,0.12,Wunderground v.1.15,2013-08-10 20:15:00,
2013-08-10 16:20:00,83.3,76.1,29.98,SSE,163,0.0,0.0,79,0.00,,,0.12,Wunderground v.1.15,2013-08-10 20:20:00,
2013-08-10 16:25:00,83.3,77.6,29.98,SSE,163,0.0,0.0,83,0.00,,,0.12,Wunderground v.1.15,2013-08-10 20:25:00,
2013-08-10 16:30:00,83.0,75.8,29.98,SSE,164,0.0,0.0,79,0.00,,,0.12,Wunderground v.1.15,2013-08-10 20:30:00,
2013-08-10 16:35:00,81.9,74.0,29.98,South,178,0.0,0.0,77,0.00,,,0.12,Wunderground v.1.15,2013-08-10 20:35:00,
2013-08-10 16:40:00,80.9,73.0,29.99,South,176,0.0,0.0,77,0.00,,,0.12,Wunderground v.1.15,2013-08-10 20:40:00,
2013-08-10 16:45:00,79.8,72.3,29.98,SE,125,0.0,2.0,78,0.00,,,0.12,Wunderground v.1.15,2013-08-10 20:45:00,
2013-08-10 16:50:00,78.7,72.0,29.99,SE,133,0.0,1.0,80,0.00,,,0.12,Wunderground v.1.15,2013-08-10 20:50:00,
2013-08-10 16:55:00,78.0,71.0,29.99,SE,139,0.0,1.0,79,0.00,,,0.12,Wunderground v.1.15,2013-08-10 20:55:00,
2013-08-10 17:00:00,77.3,70.3,29.99,SSE,167,0.0,1.0,79,0.00,,,0.12,Wunderground v.1.15,2013-08-10 21:00:00,
2013-08-10 17:05:00,76.6,71.0,29.98,South,178,0.0,1.0,83,0.00,,,0.12,Wunderground v.1.15,2013-08-10 21:05:00,
2013-08-10 17:10:00,76.4,71.6,29.99,South,178,0.0,0.0,85,0.00,,,0.12,Wunderground v.1.15,2013-08-10 21:10:00,
2013-08-10 17:15:00,75.9,70.0,29.99,South,178,0.0,0.0,82,0.00,,,0.12,Wunderground v.1.15,2013-08-10 21:15:00,
2013-08-10 17:20:00,75.7,70.9,29.99,South,178,0.0,0.0,85,0.00,,,0.12,Wunderground v.1.15,2013-08-10 21:20:00,
2013-08-10 17:30:00,75.6,71.5,29.99,South,178,0.0,0.0,87,0.00,,,0.12,Wunderground v.1.15,2013-08-10 21:30:00,
2013-08-10 17:35:00,76.3,71.1,29.99,South,178,0.0,0.0,84,0.00,,,0.12,Wunderground v.1.15,2013-08-10 21:35:00,
2013-08-10 17:40:00,76.7,71.5,29.99,South,178,0.0,0.0,84,0.00,,,0.12,Wunderground v.1.15,2013-08-10 21:40:00,
2013-08-10 17:45:00,77.2,72.3,29.99,South,178,0.0,0.0,85,0.00,,,0.12,Wunderground v.1.15,2013-08-10 21:45:00,
2013-08-10 17:50:00,78.0,72.4,29.99,South,178,0.0,0.0,83,0.00,,,0.12,Wunderground v.1.15,2013-08-10 21:50:00,
2013-08-10 17:55:00,78.7,73.8,29.99,South,178,0.0,0.0,85,0.00,,,0.12,Wunderground v.1.15,2013-08-10 21:55:00,
2013-08-10 18:00:00,78.8,72.5,29.99,South,178,0.0,0.0,81,0.00,,,0.12,Wunderground v.1.15,2013-08-10 22:00:00,
2013-08-10 18:05:00,78.9,72.6,30.00,South,178,0.0,0.0,81,0.00,,,0.12,Wunderground v.1.15,2013-08-10 22:05:00,
2013-08-10 18:10:00,78.9,71.8,30.00,South,178,0.0,0.0,79,0.00,,,0.12,Wunderground v.1.15,2013-08-10 22:10:00,
2013-08-10 18:15:00,78.9,72.6,30.00,South,178,0.0,0.0,81,0.00,,,0.12,Wunderground v.1.15,2013-08-10 22:15:00,
2013-08-10 18:20:00,78.9,72.2,30.00,South,178,0.0,0.0,80,0.00,,,0.12,Wunderground v.1.15,2013-08-10 22:20:00,
2013-08-10 18:25:00,78.7,73.1,30.00,South,178,0.0,0.0,83,0.00,,,0.12,Wunderground v.1.15,2013-08-10 22:25:00,
2013-08-10 18:30:00,78.5,73.3,30.01,South,178,0.0,0.0,84,0.00,,,0.12,Wunderground v.1.15,2013-08-10 22:30:00,
2013-08-10 18:35:00,78.2,72.6,30.01,South,178,0.0,0.0,83,0.00,,,0.12,Wunderground v.1.15,2013-08-10 22:35:00,
2013-08-10 18:40:00,78.1,73.2,30.01,South,178,0.0,0.0,85,0.00,,,0.12,Wunderground v.1.15,2013-08-10 22:40:00,
2013-08-10 18:45:00,78.1,72.5,30.01,South,178,0.0,0.0,83,0.00,,,0.12,Wunderground v.1.15,2013-08-10 22:45:00,
2013-08-10 18:50:00,78.0,72.1,30.01,South,178,0.0,0.0,82,0.00,,,0.12,Wunderground v.1.15,2013-08-10 22:50:00,
2013-08-10 18:55:00,78.0,72.8,30.01,South,178,0.0,0.0,84,0.00,,,0.12,Wunderground v.1.15,2013-08-10 22:55:00,
2013-08-10 19:00:00,78.0,72.8,30.01,South,178,0.0,0.0,84,0.00,,,0.12,Wunderground v.1.15,2013-08-10 23:00:00,
2013-08-10 19:05:00,77.8,73.3,30.01,South,178,0.0,0.0,86,0.00,,,0.12,Wunderground v.1.15,2013-08-10 23:05:00,
2013-08-10 19:10:00,77.4,73.2,30.01,South,178,0.0,0.0,87,0.00,,,0.12,Wunderground v.1.15,2013-08-10 23:10:00,
2013-08-10 19:20:00,76.3,72.5,30.01,SE,138,1.0,1.0,88,0.00,,,0.12,Wunderground v.1.15,2013-08-10 23:20:00,
2013-08-10 19:25:00,75.5,72.0,30.01,ESE,111,1.0,2.0,89,0.00,,,0.12,Wunderground v.1.15,2013-08-10 23:25:00,
2013-08-10 19:30:00,74.4,70.6,30.01,ENE,71,3.0,3.0,88,0.00,,,0.12,Wunderground v.1.15,2013-08-10 23:30:00,
2013-08-10 19:35:00,73.8,70.0,30.00,East,100,3.0,3.0,88,0.00,,,0.12,Wunderground v.1.15,2013-08-10 23:35:00,
2013-08-10 19:40:00,73.3,69.5,30.01,ESE,118,1.0,1.0,88,0.00,,,0.12,Wunderground v.1.15,2013-08-10 23:40:00,
2013-08-10 19:45:00,73.0,69.2,30.01,ESE,119,1.0,2.0,88,0.00,,,0.12,Wunderground v.1.15,2013-08-10 23:45:00,
2013-08-10 19:50:00,72.7,69.3,30.01,ESE,122,0.0,0.0,89,0.00,,,0.12,Wunderground v.1.15,2013-08-10 23:50:00,
2013-08-10 19:55:00,72.6,69.5,30.02,ESE,122,0.0,0.0,90,0.00,,,0.12,Wunderground v.1.15,2013-08-10 23:55:00,
2013-08-10 20:00:00,72.5,69.7,30.02,ESE,122,0.0,0.0,91,0.00,,,0.12,Wunderground v.1.15,2013-08-11 00:00:00,
2013-08-10 20:05:00,72.4,69.6,30.02,ESE,122,0.0,0.0,91,0.00,,,0.12,Wunderground v.1.15,2013-08-11 00:05:00,
2013-08-10 20:10:00,72.3,69.5,30.02,ESE,122,0.0,0.0,91,0.00,,,0.12,Wunderground v.1.15,2013-08-11 00:10:00,
2013-08-10 20:15:00,72.0,69.2,30.02,ESE,122,0.0,0.0,91,0.00,,,0.12,Wunderground v.1.15,2013-08-11 00:15:00,
2013-08-10 20:20:00,71.9,69.1,30.02,ESE,122,0.0,0.0,91,0.00,,,0.12,Wunderground v.1.15,2013-08-11 00:20:00,
2013-08-10 20:25:00,71.6,68.8,30.02,ESE,122,0.0,0.0,91,0.00,,,0.12,Wunderground v.1.15,2013-08-11 00:25:00,
2013-08-10 20:35:00,71.3,68.9,30.02,ESE,122,0.0,0.0,92,0.00,,,0.12,Wunderground v.1.15,2013-08-11 00:35:00,
2013-08-10 20:40:00,71.2,68.4,30.02,ESE,122,0.0,0.0,91,0.00,,,0.12,Wunderground v.1.15,2013-08-11 00:40:00,
2013-08-10 20:45:00,71.0,68.2,30.01,ESE,122,0.0,0.0,91,0.00,,,0.12,Wunderground v.1.15,2013-08-11 00:45:00,
2013-08-10 20:50:00,71.0,68.2,30.02,ESE,122,0.0,0.0,91,0.00,,,0.12,Wunderground v.1.15,2013-08-11 00:50:00,
2013-08-10 20:55:00,70.9,68.1,30.02,ESE,122,0.0,0.0,91,0.00,,,0.12,Wunderground v.1.15,2013-08-11 00:55:00,
2013-08-10 21:00:00,70.9,68.1,30.02,ESE,122,0.0,0.0,91,0.00,,,0.12,Wunderground v.1.15,2013-08-11 01:00:00,
2013-08-10 21:05:00,70.8,68.0,30.02,ESE,122,0.0,0.0,91,0.00,,,0.12,Wunderground v.1.15,2013-08-11 01:05:00,
2013-08-10 21:15:00,70.7,67.6,30.02,ESE,122,0.0,0.0,90,0.00,,,0.12,Wunderground v.1.15,2013-08-11 01:15:00,
2013-08-10 21:20:00,70.6,67.5,30.01,ESE,122,0.0,0.0,90,0.00,,,0.12,Wunderground v.1.15,2013-08-11 01:20:00,
2013-08-10 21:25:00,70.6,67.5,30.02,ESE,122,0.0,0.0,90,0.00,,,0.12,Wunderground v.1.15,2013-08-11 01:25:00,
2013-08-10 21:30:00,70.5,67.7,30.02,ESE,122,0.0,0.0,91,0.00,,,0.12,Wunderground v.1.15,2013-08-11 01:30:00,
2013-08-10 21:35:00,70.3,67.5,30.02,ESE,122,0.0,0.0,91,0.00,,,0.12,Wunderground v.1.15,2013-08-11 01:35:00,
2013-08-10 21:40:00,70.2,67.8,30.02,ESE,122,0.0,0.0,92,0.00,,,0.12,Wunderground v.1.15,2013-08-11 01:40:00,
2013-08-10 21:45:00,70.0,67.6,30.02,ESE,122,0.0,0.0,92,0.00,,,0.12,Wunderground v.1.15,2013-08-11 01:45:00,
2013-08-10 21:50:00,69.9,67.8,30.03,ESE,122,0.0,0.0,93,0.00,,,0.12,Wunderground v.1.15,2013-08-11 01:50:00,
2013-08-10 21:55:00,69.7,67.6,30.03,ESE,122,0.0,0.0,93,0.00,,,0.12,Wunderground v.1.15,2013-08-11 01:55:00,
2013-08-10 22:00:00,69.6,67.5,30.03,ESE,122,0.0,0.0,93,0.00,,,0.12,Wunderground v.1.15,2013-08-11 02:00:00,
2013-08-10 22:05:00,69.4,67.6,30.03,ESE,122,0.0,0.0,94,0.00,,,0.12,Wunderground v.1.15,2013-08-11 02:05:00,
2013-08-10 22:15:00,69.2,67.4,30.03,ESE,122,0.0,0.0,94,0.00,,,0.12,Wunderground v.1.15,2013-08-11 02:15:00,
2013-08-10 22:20:00,69.0,67.2,30.03,ESE,122,0.0,0.0,94,0.00,,,0.12,Wunderground v.1.15,2013-08-11 02:20:00,
2013-08-10 22:25:00,68.8,67.3,30.03,ESE,122,0.0,0.0,95,0.00,,,0.12,Wunderground v.1.15,2013-08-11 02:25:00,
2013-08-10 22:30:00,68.7,67.2,30.03,ESE,122,0.0,0.0,95,0.00,,,0.12,Wunderground v.1.15,2013-08-11 02:30:00,
2013-08-10 22:35:00,68.6,67.1,30.03,ESE,122,0.0,0.0,95,0.00,,,0.12,Wunderground v.1.15,2013-08-11 02:35:00,
2013-08-10 22:40:00,68.5,67.0,30.03,ESE,122,0.0,0.0,95,0.00,,,0.12,Wunderground v.1.15,2013-08-11 02:40:00,
2013-08-10 22:45:00,68.4,66.9,30.03,ESE,122,0.0,0.0,95,0.00,,,0.12,Wunderground v.1.15,2013-08-11 02:45:00,
2013-08-10 22:50:00,68.4,67.2,30.03,ESE,122,0.0,0.0,96,0.00,,,0.12,Wunderground v.1.15,2013-08-11 02:50:00,
2013-08-10 22:55:00,68.3,67.1,30.04,ESE,122,0.0,0.0,96,0.00,,,0.12,Wunderground v.1.15,2013-08-11 02:55:00,
2013-08-10 23:00:00,68.3,67.1,30.04,ESE,122,0.0,0.0,96,0.00,,,0.12,Wunderground v.1.15,2013-08-11 03:00:00,
2013-08-10 23:05:00,68.3,67.1,30.04,ESE,122,0.0,0.0,96,0.00,,,0.12,Wunderground v.1.15,2013-08-11 03:05:00,
2013-08-10 23:15:00,68.1,66.9,30.04,ESE,122,0.0,0.0,96,0.00,,,0.12,Wunderground v.1.15,2013-08-11 03:15:00,
2013-08-10 23:20:00,68.1,66.9,30.03,ESE,122,0.0,0.0,96,0.00,,,0.12,Wunderground v.1.15,2013-08-11 03:20:00,
2013-08-10 23:25:00,68.1,66.9,30.03,ESE,122,0.0,0.0,96,0.00,,,0.12,Wunderground v.1.15,2013-08-11 03:25:00,
2013-08-10 23:30:00,68.1,66.9,30.03,ESE,122,0.0,0.0,96,0.00,,,0.12,Wunderground v.1.15,2013-08-11 03:30:00,
2013-08-10 23:35:00,68.0,66.8,30.04,ESE,122,0.0,0.0,96,0.00,,,0.12,Wunderground v.1.15,2013-08-11 03:35:00,
2013-08-10 23:40:00,68.0,66.8,30.04,ESE,122,0.0,0.0,96,0.00,,,0.12,Wunderground v.1.15,2013-08-11 03:40:00,
2013-08-10 23:45:00,67.9,66.7,30.04,ESE,122,0.0,0.0,96,0.00,,,0.12,Wunderground v.1.15,2013-08-11 03:45:00,
2013-08-10 23:50:00,67.9,66.7,30.04,ESE,122,0.0,0.0,96,0.00,,,0.12,Wunderground v.1.15,2013-08-11 03:50:00,
2013-08-10 23:55:00,67.9,66.7,30.04,ESE,122,0.0,0.0,96,0.00,,,0.12,Wunderground v.1.15,2013-08-11 03:55:00,